2018-004AA (43135 NORAD) Tracking and Keplerian Element Data

This shows tracking and keplerian element data for the satellite.

Feedback or suggestion? Click here.




ElementValue
Catalog43135
Name2018-004AA
Epoch Orbit430
Epoch Day40.60118078
Epoch Year2018
RAAN102.8554
Inclination97.5516
Eccentricity0.000999
Argument of Perigee177.3571
Mean Anonmoly182.7719
Mean Motion15.22347665
Decay Rate9.73E-06
L11 43135U 18004AA 18040.60118078 .00000973 00000-0 45289-4 0 9994
L22 43135 97.5516 102.8554 0009990 177.3571 182.7719 15.22347665 4307

Live tracking and technical data element details for 2018-004AA (NORAD 43135). 2018-004AA can be tracked NOW for your location showing map with azimuth and elevation plus other details from your city location.

Track the satellite on the map from your city or location and see movement details for azimuth, elevation, latitude, longitude, range, height, and movement on the map or in text.







IsCatalogInMostPopularTable: catalog: 43135, numindb: 132
Update: records affected: 1



GetName: 43135 2018-004AA

Hit Count: updated at: Mon, 12 Nov 2018 18:23:50 GMT